Wind_Speed
23 24 24 24 25 25 26 26 26 26 27 28 26 19 19 20 19 14 7 16 6 15 13 6 9 9 11 5 6 4 4 2 6 5 5 9 5 7 5 11 4 5 8 15 27
25 25 26 26 25 26 27 27 26 26 26 29 26 18 18 18 15 13 29 23 20 17 11 11 5 6 3 2 2 4 5 8 7 8 10 13 14 14 6 11 3 11 16 26 28
28 28 27 27 27 27 27 28 27 27 27 29 26 17 16 12 5 9 3 5 17 24 18 6 4 4 2 4 5 6 8 9 7 7 20 15 12 3 18 7 10 23 21 23 24
29 30 29 28 28 28 28 29 30 29 28 28 25 14 12 4 6 2 7 11 10 22 16 6 5 5 3 4 4 5 13 7 8 8 13 18 9 7 7 4 17 19 22 21 18
29 30 30 30 30 30 30 31 31 30 31 28 22 10 3 2 11 22 21 21 11 20 13 5 5 6 4 5 5 7 4 11 10 9 13 10 9 7 5 12 17 18 20 20 18
32 30 30 31 32 33 32 32 34 32 33 27 15 2 1 5 7 11 13 6 16 22 11 7 7 7 2 4 1 4 6 11 9 8 7 12 7 6 8 15 18 21 20 19 18
33 34 31 30 32 34 36 34 33 36 30 19 5 2 2 16 15 9 3 5 11 23 6 13 6 1 2 7 4 14 7 8 3 3 6 14 4 7 17 18 18 19 17 18 17
33 34 34 33 33 34 36 36 34 32 16 6 5 4 7 9 12 14 10 9 5 13 18 7 9 4 5 5 5 7 4 10 4 6 8 6 4 12 17 19 19 17 16 16 17
33 33 34 35 35 36 35 34 34 12 5 4 2 3 9 11 8 9 14 6 4 9 11 6 3 6 3 5 5 6 14 4 5 8 4 2 5 15 17 16 16 15 16 15 13
35 34 34 35 37 39 37 32 9 2 3 2 4 2 6 3 7 13 13 14 3 5 3 5 2 3 3 5 7 13 6 8 13 15 7 6 6 19 19 17 18 16 15 15 14
36 35 35 37 36 38 34 6 4 3 2 6 8 8 20 16 15 6 8 6 3 4 7 4 4 7 11 8 7 11 4 15 12 7 5 7 10 21 20 16 16 16 15 15 15
37 36 37 39 40 26 6 3 3 2 11 12 20 16 26 2 6 16 7 7 6 7 5 2 8 10 7 6 8 5 5 7 3 7 6 4 6 18 21 22 21 19 17 18 16
37 35 40 39 30 1 18 9 4 16 4 9 11 10 10 13 10 15 9 5 5 6 6 7 5 8 7 5 7 5 6 5 7 9 6 9 3 9 13 9 13 15 16 14 18
38 36 40 41 3 18 12 2 18 5 3 8 5 7 8 10 7 12 12 7 3 11 6 6 8 8 5 5 7 3 9 8 9 16 7 7 5 9 14 15 13 14 14 16 17
38 38 38 27 19 6 6 20 22 4 5 5 5 1 4 14 5 9 9 6 13 6 7 8 7 7 5 7 7 9 7 8 9 15 6 4 4 6 12 11 20 20 19 18 17
40 36 36 16 11 23 18 19 1 5 8 7 3 3 4 4 6 2 7 5 6 6 3 11 4 6 8 6 8 3 4 7 5 5 5 12 7 5 12 27 27 17 18 20 19
46 37 35 20 7 8 10 6 3 4 4 5 4 5 3 1 9 4 7 10 11 8 6 3 8 4 4 5 4 5 7 3 3 2 5 8 4 9 19 25 25 26 21 22 19
49 38 28 24 21 16 4 4 5 7 8 6 6 8 3 2 5 4 6 12 8 5 6 6 9 9 4 9 8 7 10 7 7 5 6 5 7 10 15 22 22 16 20 19 21
44 25 21 11 13 15 4 3 8 6 4 3 5 4 4 4 5 5 7 14 15 11 9 7 8 5 6 7 11 5 5 9 6 1 3 4 6 8 7 11 16 18 17 19 22
30 14 12 8 11 12 4 7 6 5 5 4 1 2 2 3 7 6 4 6 12 12 7 9 2 7 8 5 6 13 7 2 2 6 5 4 4 6 8 8 11 13 17 20 19
8 5 6 4 16 4 4 8 7 7 7 4 2 5 5 6 6 2 8 10 11 14 14 8 6 8 6 8 10 2 2 4 5 4 7 4 6 8 8 9 17 20 23 18 17
7 4 5 19 1 1 4 7 4 5 4 4 4 6 5 5 7 5 10 10 12 17 13 10 7 11 12 5 4 7 11 10 8 5 1 4 7 5 9 9 12 13 14 10 12
7 4 5 5 2 3 6 4 2 2 7 4 5 4 6 10 6 6 10 22 18 20 18 9 5 5 7 4 1 5 6 5 4 4 8 7 6 1 4 6 10 11 10 11 13
3 4 4 3 1 1 5 6 4 4 6 8 7 7 9 4 8 8 15 15 14 15 27 17 5 15 14 9 6 6 6 7 8 5 6 6 5 4 7 8 8 9 11 14 16
2 4 2 4 3 6 3 4 5 3 4 7 4 11 8 8 5 5 11 10 11 8 8 15 11 8 20 15 6 6 6 7 7 9 9 8 10 10 12 13 14 14 9 12 13
2 3 5 4 4 4 2 3 3 2 4 7 7 10 8 7 5 3 6 6 6 8 7 6 7 9 8 12 13 10 14 12 14 6 4 8 7 8 14 5 5 11 12 10 10
4 6 0 5 5 3 3 5 9 12 7 10 9 5 4 4 6 8 10 12 8 4 5 1 9 6 17 6 7 5 8 16 7 1 7 6 10 6 4 8 12 12 14 14 10
Wind_Direction
354 352 352 352 351 349 349 348 349 349 346 346 346 339 336 327 321 299 246 248 226 230 229 211 222 218 194 205 198 146 51 168 168 169 145 158 136 190 97 136 142 170 139 149 154
352 349 348 348 346 345 344 344 345 346 344 342 342 338 333 325 321 271 270 263 250 239 215 201 191 179 190 213 220 108 134 222 184 167 158 178 158 165 131 166 93 109 117 145 154
351 347 345 344 343 341 340 339 341 341 339 338 337 334 330 327 311 250 77 350 228 226 224 188 145 146 161 176 193 191 203 207 178 185 165 159 170 164 146 196 184 151 147 157 163
348 345 342 341 340 339 338 336 336 337 334 332 331 329 327 325 290 276 257 322 236 195 197 166 141 146 158 213 233 181 231 179 158 144 142 161 136 117 163 229 158 151 151 160 170
348 344 341 339 337 336 335 333 333 332 329 325 322 327 345 309 249 279 291 287 194 179 184 150 144 161 181 201 250 208 168 167 142 130 138 135 142 134 184 137 141 148 156 167 177
346 344 341 338 336 334 332 329 329 328 323 316 310 321 174 264 262 310 306 267 185 181 165 162 194 199 202 251 253 154 137 127 124 162 134 122 124 98 157 144 146 157 165 173 179
343 344 341 336 335 333 330 327 325 324 316 310 271 135 203 238 281 314 330 257 207 195 155 195 209 22 98 319 267 128 97 77 101 168 119 113 64 154 152 155 152 163 170 176 186
343 342 342 338 334 332 328 324 322 319 313 289 164 143 242 266 292 275 225 262 246 217 215 209 187 177 158 264 43 96 38 141 227 171 173 86 190 157 163 163 165 169 176 183 192
344 340 338 337 335 333 325 324 320 327 6 132 158 175 266 307 273 264 231 227 179 201 224 259 191 185 129 105 33 52 171 212 182 207 139 116 132 174 171 173 175 180 183 188 192
344 340 337 334 336 335 323 329 322 12 58 343 273 326 273 302 330 324 241 222 150 136 175 196 116 139 61 115 176 180 189 208 170 201 183 200 169 165 177 175 182 190 195 198 194
343 340 338 334 334 332 326 339 3 351 190 234 238 260 286 281 293 276 212 142 123 127 162 203 143 195 197 185 147 152 186 204 203 179 130 190 153 175 181 186 189 193 197 203 208
341 341 339 332 334 328 20 6 56 38 296 235 244 240 246 270 305 288 220 145 147 197 149 85 213 211 185 148 134 142 178 204 321 166 96 171 175 179 184 194 191 188 196 199 204
340 341 340 331 334 58 324 265 316 344 249 275 226 221 216 161 217 252 157 164 159 183 185 173 229 155 182 159 144 164 175 193 187 153 43 116 12 204 214 214 210 204 203 199 190
338 342 339 335 352 328 290 315 324 341 331 278 271 266 161 145 229 218 186 146 197 198 157 216 246 167 175 196 137 239 202 214 135 158 195 168 217 220 211 215 217 213 204 201 193
338 338 335 333 293 292 299 318 321 123 330 261 275 200 184 168 158 216 185 153 196 198 145 233 205 188 175 194 145 230 154 199 172 183 123 215 103 253 167 219 225 214 209 204 195
336 332 331 328 278 280 302 327 95 48 253 305 302 337 114 240 194 128 153 154 154 205 193 210 216 175 193 218 172 217 102 40 51 127 188 200 165 239 181 214 224 215 210 200 195
335 325 313 284 240 285 331 342 71 168 322 277 316 344 147 284 214 183 164 184 180 175 214 175 239 215 160 239 133 96 81 330 336 9 214 183 144 235 210 216 215 204 203 200 194
333 323 308 276 267 256 280 59 207 221 244 305 321 341 353 145 250 215 168 198 231 120 182 171 228 193 197 187 178 180 161 164 190 203 225 139 201 238 212 221 216 210 206 195 196
332 325 297 292 244 198 101 178 206 203 221 291 336 359 319 38 12 165 211 212 210 181 188 163 253 279 211 189 165 208 161 197 140 357 92 216 275 328 321 220 200 200 190 202 200
330 317 285 301 174 161 99 230 219 224 343 20 202 225 291 16 11 35 297 211 220 184 170 213 254 215 235 171 231 203 167 102 0 168 232 238 235 217 219 205 203 195 200 204 199
340 341 324 249 148 49 184 220 238 245 284 224 251 269 254 304 200 235 240 281 244 219 195 158 157 264 159 196 205 127 176 70 132 143 174 223 256 214 225 188 187 197 207 192 188
5 326 32 142 19 244 191 200 225 266 327 282 270 257 251 273 266 255 251 240 255 212 182 200 176 230 227 226 188 184 201 182 207 240 190 167 259 229 220 193 189 200 196 185 182
319 265 313 191 221 263 296 296 291 234 238 223 252 238 336 294 291 223 267 275 259 221 196 171 205 206 323 332 96 181 187 173 124 97 184 157 249 274 177 176 188 178 188 185 189
300 319 309 26 354 42 358 274 259 251 254 254 243 242 259 252 208 284 291 285 300 207 199 157 143 204 223 217 161 186 186 195 154 139 168 210 197 245 215 186 205 200 188 192 198
221 255 272 308 325 328 225 278 284 269 255 265 256 213 207 205 226 240 275 304 332 27 217 167 191 178 225 215 189 218 207 204 172 177 171 211 191 212 205 200 204 200 183 187 199
304 350 341 287 295 301 220 250 274 338 272 285 218 201 199 184 188 252 337 309 255 322 358 175 227 156 228 210 197 230 246 210 228 160 125 141 217 216 211 89 129 194 193 196 186
334 319 94 288 308 333 232 345 301 315 260 233 283 284 225 259 283 182 231 246 248 239 312 172 186 141 224 181 170 219 222 195 157 59 143 148 219 167 164 196 199 205 199 196 189
Height
801 797 793 790 786 783 779 776 772 769 765 761 756 753 749 744 740 738 734 728 730 734 737 739 739 742 745 745 740 743 781 789 786 789 783 772 781 775 770 778 776 778 786 791 799
800 796 792 788 785 781 777 774 770 767 763 759 755 751 748 744 739 732 719 722 725 729 732 734 738 737 745 742 741 754 785 778 760 761 770 770 773 773 779 783 785 784 786 795 800
800 795 791 786 783 779 776 772 768 765 761 757 754 750 747 744 742 720 714 715 716 723 728 731 734 735 745 742 744 751 768 749 751 749 751 764 770 768 780 790 780 782 786 793 799
798 794 790 785 780 777 773 769 766 762 758 754 751 749 745 745 756 713 712 712 713 718 726 728 733 743 750 752 738 754 738 740 744 745 753 763 764 773 775 775 772 778 783 791 796
796 791 787 783 779 774 770 766 762 758 754 750 748 747 745 746 730 713 712 711 712 716 721 725 733 738 749 744 739 741 734 735 738 747 752 755 764 769 775 770 774 782 787 792 797
794 789 784 780 776 771 766 762 758 754 750 746 744 745 746 751 713 712 709 708 710 714 719 723 726 725 736 738 739 726 732 737 743 752 753 762 770 769 776 772 777 782 788 792 795
793 788 782 777 772 768 764 758 754 749 744 741 741 743 745 726 711 710 709 708 709 711 716 720 721 726 730 739 723 725 753 748 753 754 763 756 778 783 771 775 780 784 786 790 792
791 786 781 775 769 764 758 754 749 744 740 738 739 742 737 711 709 706 708 708 710 712 716 717 720 723 729 724 729 746 757 776 757 755 755 760 795 778 772 775 782 784 787 789 790
790 784 778 772 766 760 754 749 744 740 739 739 742 740 732 710 707 702 704 705 708 710 714 715 716 726 729 753 771 758 782 781 772 752 757 767 791 776 773 778 782 783 784 786 788
789 783 776 770 764 757 749 745 741 740 740 741 741 743 716 710 704 703 701 702 706 710 716 719 726 740 751 765 798 776 787 773 770 757 761 774 777 773 773 777 780 781 782 783 785
786 780 775 768 762 755 746 742 743 744 742 737 731 726 711 704 704 700 699 701 705 712 735 723 743 757 749 742 748 755 768 770 754 748 763 770 774 771 771 776 780 780 781 782 783
785 778 773 765 759 753 749 750 749 754 749 723 714 711 703 703 711 697 699 708 716 732 725 736 751 731 727 734 743 751 762 770 755 749 760 773 776 768 768 768 766 770 774 775 778
783 777 771 763 756 753 752 748 748 747 753 710 695 695 692 699 706 702 698 703 715 729 732 745 732 720 726 733 745 756 761 760 762 758 761 772 790 783 770 766 766 764 763 768 771
781 775 770 760 757 753 748 746 745 743 762 724 701 685 683 688 702 685 687 699 711 728 730 733 715 721 728 733 737 758 739 740 754 768 793 762 814 788 773 772 767 763 762 761 763
779 775 769 768 762 754 745 742 740 741 791 704 693 674 678 688 685 685 681 693 715 717 724 732 719 724 730 728 726 742 729 739 748 761 777 780 797 780 770 780 763 754 753 755 758
774 770 766 763 760 743 741 741 738 770 781 717 689 691 693 689 685 678 685 684 693 712 710 716 700 709 715 709 715 712 728 752 765 776 798 774 784 785 771 753 743 746 746 747 750
769 761 760 759 750 742 742 743 768 781 724 716 708 697 695 700 692 690 699 705 717 740 738 715 714 702 699 718 716 727 758 798 799 801 804 769 781 763 740 723 723 730 735 736 742
762 753 743 740 738 742 745 757 772 739 734 707 704 700 704 692 697 697 704 712 706 713 733 747 747 713 699 714 731 738 752 793 806 815 787 772 785 747 713 709 710 719 722 728 734
755 745 736 727 729 738 746 769 753 737 716 713 710 715 713 702 701 701 708 705 696 705 731 749 741 699 696 697 709 727 753 735 770 777 790 778 751 720 713 715 711 714 721 725 725
756 747 734 728 728 735 750 751 735 717 707 710 725 714 722 716 719 713 711 691 692 691 691 715 734 705 693 693 696 706 715 752 771 785 786 776 754 754 724 721 716 717 716 714 717
760 754 730 728 731 739 750 743 722 708 706 714 717 718 716 718 713 716 711 690 682 680 685 706 719 717 698 709 713 718 726 737 747 763 781 786 769 721 707 708 712 706 700 706 712
771 764 733 732 741 744 741 730 710 708 702 709 706 710 714 711 712 711 706 690 665 667 694 694 713 723 712 690 682 694 709 715 738 759 768 765 756 694 693 698 699 701 699 702 706
776 769 734 735 744 739 729 716 709 708 709 707 708 700 696 706 715 697 689 660 654 659 669 686 716 736 724 703 691 698 705 713 725 738 758 760 752 694 692 695 696 702 701 701 702
781 770 742 737 737 733 738 727 718 698 701 697 700 696 695 694 692 692 681 657 638 636 638 655 703 694 709 702 694 700 698 702 707 739 746 742 717 697 696 693 696 696 699 698 697
781 768 755 751 739 744 737 730 718 712 698 692 696 691 690 702 687 687 676 662 651 640 644 651 688 693 673 675 684 683 686 696 697 698 713 713 715 697 691 688 686 682 690 696 698
779 773 763 757 749 742 733 724 723 711 707 699 696 679 680 688 679 683 678 675 676 656 655 653 677 678 685 673 675 684 675 681 677 692 687 698 705 677 667 677 683 682 683 688 693
778 774 772 756 746 742 735 729 719 716 698 693 688 685 679 671 667 658 665 671 669 675 670 669 665 690 685 674 678 697 675 673 674 674 674 700 684 673 678 680 678 678 676 680 684